DW2690 Weather Reports


time (UTC)temp
C
wind
direction
speed
KPH
gust
KPH
rain 1hr
cm
rain 24hr
cm
rain mn
cm
humidity
%
barometer
mb
20260507023330 13 276 0.0 0.0 0.00 0.00 0.00 80 1020.1
20260507022817 13 276 0.0 0.0 0.00 0.00 0.00 80 1020.1
20260507022324 13 276 0.0 0.0 0.00 0.00 0.00 79 1020.1
20260507021816 13 276 0.0 0.0 0.00 0.00 0.00 79 1020.1
20260507021325 13 276 0.0 0.0 0.00 0.00 0.00 79 1020.1
20260507020830 13 277 0.0 0.0 0.00 0.00 0.00 79 1020.0
20260507020337 13 276 0.0 0.0 0.00 0.00 0.00 79 1020.0
20260507015825 13 277 0.0 0.0 0.00 0.00 0.00 79 1020.0
20260507015332 13 276 0.0 1.6 0.00 0.00 0.00 79 1019.9
20260507014818 13 277 0.0 1.6 0.00 0.00 0.00 79 1019.9
20260507014324 13 276 0.0 1.6 0.00 0.00 0.00 78 1020.0
20260507013850 13 256 0.0 0.0 0.00 0.00 0.00 79 1019.9
20260507013317 13 256 0.0 0.0 0.00 0.00 0.00 79 1020.0
20260507012824 13 255 0.0 1.6 0.00 0.00 0.00 78 1019.9
20260507012352 13 322 0.0 0.0 0.00 0.00 0.00 77 1020.0
20260507011819 13 322 0.0 6.4 0.00 0.00 0.00 77 1020.0
20260507011330 13 325 1.6 6.4 0.00 0.00 0.00 76 1020.1
20260507010816 13 296 0.0 6.4 0.00 0.00 0.00 77 1020.1
20260507010325 13 233 0.0 3.2 0.00 0.00 0.00 76 1020.1
20260507005814 13 229 0.0 0.0 0.00 0.00 0.00 76 1020.1
20260507005322 13 306 0.0 0.0 0.00 0.00 0.00 76 1020.1
20260507004828 13 247 0.0 0.0 0.00 0.00 0.00 76 1020.2
20260507004314 13 275 0.0 0.0 0.00 0.00 0.00 78 1020.1
20260507003822 13 290 0.0 0.0 0.00 0.00 0.00 76 1020.1
20260507003349 13 36 0.0 0.0 0.00 0.00 0.00 76 1020.1
20260507002815 13 36 0.0 1.6 0.00 0.00 0.00 76 1020.1
20260507002324 13 37 0.0 1.6 0.00 0.00 0.00 76 1020.1
20260507001815 13 15 0.0 1.6 0.00 0.00 0.00 76 1020.1
20260507001323 13 15 0.0 1.6 0.00 0.00 0.00 77 1020.1
20260507000851 13 15 0.0 3.2 0.00 0.00 0.00 76 1020.1
20260507000316 13 298 0.0 3.2 0.00 0.00 0.00 76 1020.1
20260506235846 13 224 0.0 3.2 0.00 0.00 0.00 76 1020.1
20260506235331 13 248 0.0 3.2 0.00 0.00 0.00 76 1020.1
20260506234818 13 306 0.0 6.4 0.00 0.00 0.00 74 1020.0
20260506234325 13 261 0.0 6.4 0.00 0.00 0.00 75 1020.1
20260506233832 13 225 0.0 3.2 0.00 0.00 0.00 75 1020.0
20260506233318 13 230 0.0 1.6 0.00 0.00 0.00 77 1020.1
20260506232845 13 219 0.0 3.2 0.00 0.00 0.00 75 1020.0
20260506232330 13 219 0.0 3.2 0.00 0.00 0.00 75 1020.1
20260506231839 13 235 0.0 3.2 0.00 0.00 0.00 75 1020.2
20260506231345 13 61 0.0 6.4 0.00 0.00 0.00 75 1020.1
20260506230814 13 250 0.0 6.4 0.00 0.00 0.00 77 1020.1
20260506230323 13 210 1.6 6.4 0.00 0.00 0.00 74 1020.0
20260506225830 13 355 1.6 3.2 0.00 0.00 0.00 77 1020.1
20260506225316 13 314 0.0 3.2 0.00 0.00 0.00 76 1020.2
20260506224825 13 252 0.0 3.2 0.00 0.00 0.00 75 1020.2
20260506224331 13 187 1.6 3.2 0.00 0.00 0.00 75 1020.1
20260506223839 13 223 0.0 3.2 0.00 0.00 0.00 77 1020.2
20260506223324 13 251 1.6 6.4 0.00 0.00 0.00 76 1020.3
20260506222853 13 234 0.0 6.4 0.00 0.00 0.00 79 1020.2
20260506222317 13 294 1.6 6.4 0.00 0.00 0.00 77 1020.3
20260506221824 13 211 0.0 6.4 0.00 0.00 0.00 77 1020.3
20260506221315 13 213 1.6 6.4 0.00 0.00 0.00 77 1020.4
20260506220821 13 30 1.6 6.4 0.00 0.00 0.00 77 1020.4
20260506220327 13 238 0.0 3.2 0.00 0.00 0.00 78 1020.4
20260506215835 13 226 1.6 3.2 0.00 0.00 0.00 79 1020.4
20260506215320 13 241 0.0 3.2 0.00 0.00 0.00 80 1020.4
20260506214847 13 239 0.0 3.2 0.00 0.00 0.00 79 1020.4
20260506214331 13 325 1.6 3.2 0.00 0.00 0.00 79 1020.4
20260506213817 13 360 1.6 3.2 0.00 0.00 0.00 79 1020.4
20260506213344 13 309 0.0 1.6 0.00 0.00 0.00 83 1020.4
20260506212830 13 309 0.0 1.6 0.00 0.00 0.00 81 1020.4
20260506212317 13 330 0.0 3.2 0.00 0.00 0.00 82 1020.5
20260506211844 13 313 1.6 3.2 0.00 0.00 0.00 83 1020.5
20260506211329 13 307 0.0 3.2 0.00 0.00 0.00 82 1020.5
20260506210817 13 227 0.0 3.2 0.00 0.00 0.00 81 1020.4
20260506210328 13 271 0.0 1.6 0.00 0.00 0.00 82 1020.5
20260506205815 13 150 0.0 3.2 0.00 0.00 0.00 82 1020.4
20260506205321 13 64 1.6 3.2 0.00 0.00 0.00 80 1020.4
20260506204828 13 221 0.0 3.2 0.00 0.00 0.00 82 1020.4
20260506204316 13 229 0.0 1.6 0.00 0.00 0.00 82 1020.4
20260506203825 13 267 0.0 6.4 0.00 0.00 0.00 81 1020.4
20260506203331 13 267 0.0 6.4 0.00 0.00 0.00 81 1020.4
20260506202818 13 285 0.0 1.6 0.00 0.00 0.00 82 1020.3
20260506202324 13 277 0.0 3.2 0.00 0.00 0.00 81 1020.4
20260506201815 13 74 0.0 3.2 0.00 0.00 0.00 82 1020.3
20260506201322 13 197 1.6 6.4 0.00 0.00 0.00 81 1020.4
20260506200828 13 263 1.6 6.4 0.00 0.00 0.00 81 1020.4
20260506200335 13 220 3.2 4.8 0.00 0.00 0.00 81 1020.3
20260506195822 13 225 3.2 4.8 0.00 0.00 0.00 81 1020.3
20260506195329 13 21 0.0 6.4 0.00 0.00 0.00 82 1020.2
20260506194815 13 188 0.0 6.4 0.00 0.00 0.00 81 1020.2
20260506194343 13 184 0.0 3.2 0.00 0.00 0.00 83 1020.1
20260506193828 13 163 0.0 3.2 0.00 0.00 0.00 84 1020.1
20260506193315 13 257 0.0 8.0 0.00 0.00 0.00 84 1020.1
20260506192843 13 261 1.6 8.0 0.00 0.00 0.00 84 1020.2
20260506192329 13 43 0.0 6.4 0.00 0.00 0.00 85 1020.2
20260506191820 13 215 0.0 8.0 0.00 0.00 0.00 85 1020.1
20260506191327 12 210 1.6 8.0 0.00 0.00 0.00 88 1020.1
20260506190814 12 313 1.6 6.4 0.00 0.00 0.00 87 1020.1
20260506190320 12 216 1.6 6.4 0.00 0.00 0.00 88 1020.1
20260506185848 12 244 0.0 3.2 0.00 0.00 0.00 90 1020.1
20260506185313 12 267 0.0 3.2 0.00 0.00 0.00 90 1020.1
20260506184820 12 284 0.0 1.6 0.00 0.00 0.00 89 1020.1
20260506184327 12 282 0.0 3.2 0.00 0.00 0.00 89 1020.1
20260506183813 12 298 1.6 3.2 0.00 0.00 0.00 89 1020.1
20260506183322 12 238 0.0 1.6 0.00 0.00 0.00 90 1019.9
20260506182814 12 238 0.0 1.6 0.00 0.00 0.00 90 1019.9
20260506182323 12 236 0.0 1.6 0.00 0.00 0.00 89 1019.9
20260506181830 12 236 0.0 1.6 0.00 0.00 0.00 88 1019.9
20260506181316 12 280 0.0 1.6 0.00 0.00 0.00 88 1019.9
20260506180845 12 300 0.0 1.6 0.00 0.00 0.00 88 1020.1
20260506180330 12 250 0.0 3.2 0.00 0.00 0.00 88 1020.0
20260506175818 12 250 0.0 3.2 0.00 0.00 0.00 88 1019.8
20260506175325 12 221 0.0 1.6 0.00 0.00 0.00 88 1019.7
20260506174831 12 221 0.0 3.2 0.00 0.00 0.00 89 1019.5
20260506174318 12 335 0.0 3.2 0.00 0.00 0.00 88 1019.4
20260506173825 12 342 0.0 3.2 0.00 0.00 0.00 89 1019.5
20260506173315 12 342 0.0 3.2 0.00 0.00 0.00 90 1019.6
20260506172823 12 330 0.0 1.6 0.00 0.00 0.00 90 1019.7
20260506172329 12 209 0.0 0.0 0.00 0.00 0.00 91 1019.8
20260506171836 12 209 0.0 0.0 0.00 0.00 0.00 90 1020.0
20260506171321 12 238 0.0 0.0 0.00 0.00 0.00 90 1019.8
20260506170829 12 238 0.0 1.6 0.00 0.00 0.00 90 1019.8
20260506170315 12 238 0.0 3.2 0.00 0.00 0.00 89 1019.8
20260506165843 12 267 1.6 3.2 0.00 0.00 0.00 89 1019.8
20260506165329 12 195 0.0 6.4 0.00 0.00 0.00 89 1019.8
20260506164817 12 215 0.0 3.2 0.00 0.00 0.00 89 1019.6
20260506164323 12 195 0.0 1.6 0.00 0.00 0.00 89 1019.7
20260506163813 12 355 0.0 1.6 0.00 0.00 0.00 89 1019.6
20260506163322 12 248 0.0 3.2 0.00 0.00 0.00 89 1019.6
20260506162829 12 293 0.0 3.2 0.00 0.00 0.00 89 1019.6
20260506162337 12 252 0.0 3.2 0.00 0.00 0.00 89 1019.5
20260506161843 12 231 0.0 3.2 0.00 0.00 0.00 89 1019.3
20260506161330 12 257 0.0 3.2 0.00 0.00 0.00 89 1019.3
20260506160815 12 257 1.6 3.2 0.00 0.00 0.00 89 1019.4
20260506160323 12 267 0.0 3.2 0.00 0.00 0.00 90 1019.3
20260506155830 12 293 0.0 1.6 0.00 0.00 0.00 90 1019.2
20260506155316 12 292 0.0 0.0 0.00 0.00 0.00 89 1018.9
20260506154823 12 240 0.0 0.0 0.00 0.00 0.00 90 1019.0
20260506154313 12 240 0.0 0.0 0.00 0.00 0.00 90 1019.0
20260506153822 12 255 0.0 0.0 0.00 0.00 0.00 90 1019.2
20260506153328 12 255 0.0 0.0 0.00 0.00 0.00 90 1019.2
20260506152816 11 255 0.0 0.0 0.00 0.00 0.00 90 1019.2
20260506152324 11 255 0.0 0.0 0.00 0.00 0.00 90 1019.4
20260506151831 11 255 0.0 0.0 0.00 0.00 0.00 90 1019.4
20260506151319 11 255 0.0 0.0 0.00 0.00 0.00 90 1019.4
20260506150826 11 283 0.0 0.0 0.00 0.00 0.00 91 1019.4
20260506150352 11 222 0.0 0.0 0.00 0.00 0.00 90 1019.3
20260506145819 11 222 0.0 0.0 0.00 0.00 0.00 91 1019.1
20260506145345 11 265 0.0 0.0 0.00 0.00 0.00 91 1019.0
20260506144816 11 271 0.0 0.0 0.00 0.00 0.00 91 1019.0
20260506144345 11 259 0.0 0.0 0.00 0.00 0.00 91 1019.1
20260506143830 11 259 0.0 0.0 0.00 0.00 0.00 91 1019.1
20260506143315 11 259 0.0 0.0 0.00 0.00 0.00 91 1019.1
20260506142823 11 259 0.0 0.0 0.00 0.00 0.00 91 1019.2
20260506142330 11 259 0.0 0.0 0.00 0.00 0.00 91 1019.1
20260506141816 11 259 0.0 0.0 0.00 0.00 0.00 91 1019.0
20260506141344 11 259 0.0 0.0 0.00 0.00 0.00 91 1018.9
20260506140830 11 259 0.0 0.0 0.00 0.00 0.00 91 1018.9
20260506140317 11 259 0.0 0.0 0.00 0.00 0.00 91 1019.0
20260506135824 11 259 0.0 0.0 0.00 0.00 0.00 91 1019.1
20260506135331 11 259 0.0 0.0 0.00 0.00 0.00 91 1018.9
20260506134817 11 259 0.0 0.0 0.00 0.00 0.00 91 1019.0
20260506134323 11 259 0.0 0.0 0.00 0.00 0.00 91 1019.1
20260506133813 11 259 0.0 0.0 0.00 0.00 0.00 91 1018.9
20260506133321 11 246 0.0 3.2 0.00 0.00 0.00 91 1018.7
20260506132828 11 247 0.0 3.2 0.00 0.00 0.00 91 1018.7
20260506132314 11 268 0.0 1.6 0.00 0.00 0.00 92 1018.8
20260506131823 11 268 0.0 1.6 0.00 0.00 0.00 92 1018.7
20260506131329 11 248 0.0 0.0 0.00 0.00 0.00 92 1018.6
20260506130817 11 248 0.0 1.6 0.00 0.00 0.00 92 1018.5
20260506130323 11 248 0.0 1.6 0.00 0.00 0.00 92 1018.4
20260506125830 11 248 0.0 1.6 0.00 0.00 0.00 92 1018.5
20260506125316 11 248 0.0 0.0 0.00 0.00 0.00 92 1018.2
20260506124828 11 248 0.0 0.0 0.00 0.00 0.00 92 1018.3
20260506124315 11 248 0.0 0.0 0.00 0.00 0.00 92 1018.3
20260506123824 11 248 0.0 0.0 0.00 0.00 0.00 93 1018.4
20260506123331 11 248 0.0 0.0 0.00 0.00 0.00 93 1018.4
20260506122839 11 248 0.0 0.0 0.00 0.00 0.00 93 1018.3
20260506122325 11 248 0.0 0.0 0.00 0.00 0.00 93 1018.2
20260506121832 11 248 0.0 0.0 0.00 0.00 0.00 93 1018.2
20260506121339 11 248 0.0 0.0 0.00 0.00 0.00 93 1018.2
20260506120823 11 248 0.0 0.0 0.00 0.00 0.00 93 1018.2
20260506120331 11 248 0.0 0.0 0.00 0.00 0.00 94 1018.2
20260506115818 11 248 0.0 0.0 0.00 0.00 0.00 94 1018.2
20260506115325 11 248 0.0 0.0 0.00 0.00 0.00 94 1018.2
20260506114816 11 248 0.0 0.0 0.00 0.00 0.00 94 1018.1
20260506114344 11 248 0.0 0.0 0.00 0.00 0.00 94 1018.1
20260506113830 11 248 0.0 0.0 0.00 0.00 0.00 94 1018.1
20260506113316 11 248 0.0 0.0 0.00 0.00 0.00 94 1018.0
20260506112826 11 248 0.0 0.0 0.00 0.00 0.00 95 1017.9
20260506112332 11 248 0.0 0.0 0.00 0.00 0.00 95 1017.9
20260506111820 11 248 0.0 0.0 0.00 0.00 0.00 95 1017.8
20260506111325 11 248 0.0 0.0 0.00 0.00 0.00 95 1017.9
20260506110852 11 248 0.0 0.0 0.00 0.00 0.00 95 1017.7
20260506110338 11 248 0.0 3.2 0.00 0.00 0.00 95 1017.7
20260506105824 11 248 1.6 3.2 0.00 0.00 0.00 95 1017.7
20260506105314 11 289 0.0 1.6 0.00 0.00 0.00 95 1017.6
20260506104843 10 289 0.0 1.6 0.00 0.00 0.00 95 1017.6
20260506104327 10 289 0.0 0.0 0.00 0.00 0.00 95 1017.5
20260506103834 10 289 0.0 0.0 0.00 0.00 0.00 95 1017.5
20260506103320 10 289 0.0 0.0 0.00 0.00 0.00 95 1017.5
20260506102827 10 289 0.0 0.0 0.00 0.00 0.00 95 1017.4
20260506102313 10 289 0.0 0.0 0.00 0.00 0.00 95 1017.4
20260506101824 10 289 0.0 0.0 0.00 0.00 0.00 95 1017.4
20260506101331 10 289 0.0 0.0 0.00 0.00 0.00 95 1017.4
20260506100818 10 289 0.0 0.0 0.00 0.00 0.00 94 1017.4
20260506100324 10 289 0.0 0.0 0.00 0.00 0.00 94 1017.3
20260506095852 10 289 0.0 0.0 0.00 0.00 0.00 94 1017.3
20260506095319 10 289 0.0 0.0 0.00 0.00 0.00 94 1017.3
20260506094845 10 289 0.0 0.0 0.00 0.00 0.00 94 1017.2
20260506094315 10 289 0.0 0.0 0.00 0.00 0.00 94 1017.2
20260506093822 10 289 0.0 0.0 0.00 0.00 0.00 94 1017.1
20260506093329 10 289 0.0 0.0 0.00 0.00 0.00 94 1017.2
20260506092816 10 289 0.0 0.0 0.00 0.00 0.00 94 1017.1
20260506092324 10 289 0.0 0.0 0.00 0.00 0.00 94 1017.2
20260506091832 10 289 0.0 0.0 0.00 0.00 0.00 93 1017.1
20260506091318 10 289 0.0 0.0 0.00 0.00 0.00 93 1017.0
20260506090825 10 289 0.0 0.0 0.00 0.00 0.00 93 1017.0
20260506090331 10 289 0.0 0.0 0.00 0.00 0.00 94 1017.0
20260506085825 10 289 0.0 0.0 0.00 0.00 0.00 93 1017.0
20260506085331 10 289 0.0 0.0 0.00 0.00 0.00 93 1017.0
20260506084818 10 289 0.0 0.0 0.00 0.00 0.00 93 1016.9
20260506083813 10 289 0.0 0.0 0.00 0.00 0.00 93 1016.8
20260506083323 10 289 0.0 0.0 0.00 0.00 0.00 92 1016.8
20260506082851 10 289 0.0 0.0 0.00 0.00 0.00 92 1016.6
20260506082317 10 289 0.0 0.0 0.00 0.00 0.00 93 1016.6
20260506081824 10 289 0.0 0.0 0.00 0.00 0.00 93 1016.6
20260506081331 10 289 0.0 0.0 0.00 0.00 0.00 93 1016.5
20260506080821 10 289 0.0 0.0 0.00 0.00 0.00 93 1016.5
20260506080329 10 289 0.0 0.0 0.00 0.00 0.00 93 1016.5
20260506073330 10 289 0.0 0.0 0.00 0.00 0.00 92 1016.4
20260506072817 10 289 0.0 0.0 0.00 0.00 0.00 93 1016.3
20260506072324 10 289 0.0 0.0 0.00 0.00 0.00 92 1016.3
20260506071851 10 289 0.0 0.0 0.00 0.00 0.00 92 1016.3
20260506071337 11 289 0.0 0.0 0.00 0.00 0.00 92 1016.3
20260506070827 11 289 0.0 0.0 0.00 0.00 0.00 92 1016.3
20260506070314 11 289 0.0 0.0 0.00 0.00 0.00 92 1016.3
20260506062330 11 289 0.0 0.0 0.00 0.00 0.00 91 1016.1
20260506061822 11 289 0.0 0.0 0.00 0.00 0.00 91 1016.0
20260506061328 11 289 0.0 0.0 0.00 0.00 0.00 91 1016.0
20260506060815 11 289 0.0 0.0 0.00 0.00 0.00 91 1016.0
20260506060325 11 289 0.0 0.0 0.00 0.00 0.00 91 1015.9
20260506051316 12 289 0.0 0.0 0.00 0.00 0.00 89 1015.4
20260506050844 12 289 0.0 0.0 0.00 0.00 0.00 89 1015.3
20260506050331 12 289 0.0 0.0 0.00 0.00 0.00 88 1015.3
20260506044852 12 289 0.0 0.0 0.00 0.00 0.00 88 1015.2
20260506044338 12 289 0.0 0.0 0.00 0.00 0.00 87 1015.2
20260506043823 12 289 0.0 0.0 0.00 0.00 0.00 87 1015.2
20260506043329 12 289 0.0 0.0 0.00 0.00 0.00 87 1015.1
20260506042817 12 289 0.0 0.0 0.00 0.00 0.00 86 1015.1
20260506042324 13 289 0.0 0.0 0.00 0.00 0.00 86 1015.2
20260506041815 13 289 0.0 0.0 0.00 0.00 0.00 86 1015.1
20260506041323 13 289 0.0 0.0 0.00 0.00 0.00 86 1015.0
20260506040829 13 289 0.0 0.0 0.00 0.00 0.00 85 1015.0
20260506040315 13 289 0.0 0.0 0.00 0.00 0.00 85 1015.0
20260506035824 13 289 0.0 0.0 0.00 0.00 0.00 84 1015.0
20260506035331 13 289 0.0 0.0 0.00 0.00 0.00 84 1015.0
20260506034817 13 289 0.0 0.0 0.00 0.00 0.00 83 1015.0
20260506034323 13 289 0.0 0.0 0.00 0.00 0.00 83 1015.0
20260506033831 14 289 0.0 0.0 0.00 0.00 0.00 82 1015.0
20260506033339 14 289 0.0 0.0 0.00 0.00 0.00 82 1014.9
20260506032830 14 289 0.0 0.0 0.00 0.00 0.00 82 1014.8
20260506032335 15 289 0.0 0.0 0.00 0.00 0.00 82 1014.8
20260506031821 15 289 0.0 0.0 0.00 0.00 0.00 81 1014.8
20260506031328 15 289 0.0 0.0 0.00 0.00 0.00 80 1014.7
20260506030816 15 289 0.0 0.0 0.00 0.00 0.00 80 1014.7
20260506030345 15 289 0.0 0.0 0.00 0.00 0.00 79 1014.6
20260506025831 15 289 0.0 0.0 0.00 0.00 0.00 78 1014.6
20260506025319 15 289 0.0 0.0 0.00 0.00 0.00 78 1014.6
20260506024825 15 289 0.0 0.0 0.00 0.00 0.00 77 1014.7
20260506024351 15 289 0.0 0.0 0.00 0.00 0.00 77 1014.7
20260506023816 16 289 0.0 0.0 0.00 0.00 0.00 76 1014.6